Change the Weather History Date:

Friday, May 3, 2013

  Actual Average Record
Temperature  
Mean Temperature 57 °F 50 °F  
Max Temperature 68 °F 62 °F 86 °F (1966)
Min Temperature 45 °F 39 °F 28 °F (2006)
Degree Days  
Heating Degree Days 8 15  
Month to date heating degree days 43 45  
Since 1 July heating degree days 5810 6072  
Cooling Degree Days 0 0  
Month to date cooling degree days 0 0  
Year to date cooling degree days 0 0  
Growing Degree Days 7 (Base 50)    
Moisture  
Dew Point 37 °F    
Average Humidity 53    
Maximum Humidity 76    
Minimum Humidity 30    
Precipitation  
Precipitation 0.00 in 0.05 in 0.48 in (1948)
Month to date precipitation 0.00 0.16  
Year to date precipitation 5.68 7.11  
Sea Level Pressure  
Sea Level Pressure 30.23 in    
Wind  
Wind Speed 5 mph (NNW)    
Max Wind Speed 18 mph    
Max Gust Speed 29 mph    
Visibility 9 miles    
Events      
T = Trace of Precipitation, MM = Missing Value Source: NWS Daily Summary

Daily Weather History Graph

Daily Weather History Graph

Search for Another Location

Airport or City:

Trip Planner

Search our weather history database for the weather conditions in past years. The results will help you decide how hot, cold, wet, or windy it might be!

Date:

Astronomy

May. 03, 2013 Rise Set
Actual Time 5:29 AM PDT 8:01 PM PDT
Civil Twilight 4:55 AM PDT 8:35 PM PDT
Nautical Twilight 4:13 AM PDT 9:18 PM PDT
Astronomical Twilight 3:24 AM PDT 10:08 PM PDT
Moon 2:20 AM PDT (5/3) 1:39 PM PDT (5/3)
Length of Visible Light 15h 39m
Length of Day
14h 31m
Waning Crescent, 36% of the Moon is Illuminated
May 3
Waning Crescent
May 9
New
May 17
First Quarter
May 24
Full
May 31
Last Quarter

Hourly Weather History & Observations

Time (PDT) Temp. Dew Point Humidity Pressure Visibility Wind Dir Wind Speed Gust Speed Precip Events Conditions
12:53 AM 50.0 °F 36.0 °F 59% 30.27 in 10.0 mi Calm Calm - N/A   Clear
1:53 AM 48.0 °F 37.9 °F 68% 30.26 in 10.0 mi Calm Calm - N/A   Mostly Cloudy
2:53 AM 46.9 °F 39.0 °F 74% 30.26 in 10.0 mi Calm Calm - N/A   Scattered Clouds
3:53 AM 46.9 °F 39.0 °F 74% 30.26 in 10.0 mi Calm Calm - N/A   Scattered Clouds
4:53 AM 46.0 °F 37.9 °F 73% 30.25 in 10.0 mi Calm Calm - N/A   Overcast
5:53 AM 46.9 °F 37.9 °F 71% 30.25 in 10.0 mi Calm Calm - N/A   Overcast
6:53 AM 48.9 °F 37.9 °F 66% 30.25 in 10.0 mi Calm Calm - N/A   Overcast
7:53 AM 52.0 °F 41.0 °F 66% 30.26 in 9.0 mi WSW 4.6 mph - N/A   Overcast
8:53 AM 57.0 °F 33.1 °F 40% 30.26 in 10.0 mi WNW 6.9 mph - N/A   Overcast
9:31 AM 60.8 °F 37.4 °F 42% 30.25 in 2.5 mi Variable 5.8 mph - N/A   Haze
9:40 AM 60.8 °F 33.8 °F 36% 30.25 in 6.0 mi NW 4.6 mph - N/A   Haze
9:53 AM 61.0 °F 36.0 °F 39% 30.25 in 10.0 mi Calm Calm - N/A   Partly Cloudy
10:53 AM 63.0 °F 37.0 °F 38% 30.24 in 10.0 mi Calm Calm - N/A   Partly Cloudy
11:53 AM 63.0 °F 35.1 °F 35% 30.25 in 10.0 mi West 10.4 mph - N/A   Mostly Cloudy
12:53 PM 64.9 °F 37.0 °F 36% 30.23 in 10.0 mi NNW 13.8 mph 20.7 mph N/A   Mostly Cloudy
1:53 PM 66.0 °F 39.0 °F 37% 30.22 in 10.0 mi NW 10.4 mph 17.3 mph N/A   Scattered Clouds
2:53 PM 64.9 °F 37.0 °F 36% 30.22 in 10.0 mi NW 8.1 mph 16.1 mph N/A   Scattered Clouds
3:53 PM 68.0 °F 37.0 °F 32% 30.20 in 10.0 mi North 10.4 mph 16.1 mph N/A   Mostly Cloudy
4:53 PM 68.0 °F 35.1 °F 30% 30.19 in 8.0 mi NNW 8.1 mph - N/A   Scattered Clouds
5:53 PM 66.9 °F 35.1 °F 31% 30.19 in 10.0 mi North 11.5 mph - N/A   Mostly Cloudy
6:53 PM 63.0 °F 36.0 °F 37% 30.20 in 10.0 mi North 6.9 mph - N/A   Clear
7:53 PM 60.1 °F 36.0 °F 41% 30.20 in 10.0 mi North 5.8 mph - N/A   Clear
8:53 PM 55.9 °F 36.0 °F 47% 30.21 in 10.0 mi Calm Calm - N/A   Clear
9:53 PM 53.1 °F 36.0 °F 52% 30.22 in 10.0 mi ENE 5.8 mph - N/A   Clear
10:53 PM 52.0 °F 36.0 °F 54% 30.22 in 10.0 mi NE 4.6 mph - N/A   Overcast
11:53 PM 53.1 °F 36.0 °F 52% 30.22 in 9.0 mi Calm Calm - N/A   Mostly Cloudy